• In Österreich
  • Länderverzeichnis
  • Für 7 Tage
  • Wassertemperatur
  • Satellitenkarten
  • Wetterkarte
  • News
  • Widgets
  • user-avatar
    Anmelden

    Stündliche Wetter Pernik

    Heute, 16 Dezember, Samstag

    Zeit Temperatur Niederschläge Wind Luftdruck Luftfeuchtigkeit
    00:00 +4°C° 0 mm 3 m/S 683 mmHg 81%
    01:00 +4°C° 0 mm 3 m/S 683 mmHg 81%
    02:00 +4°C° 0 mm 4 m/S 682 mmHg 81%
    03:00 +4°C° 0 mm 4 m/S 682 mmHg 81%
    04:00 +4°C° 0 mm 4 m/S 682 mmHg 81%
    05:00 +4°C° 0 mm 4 m/S 682 mmHg 81%
    06:00 +4°C° 0 mm 4 m/S 682 mmHg 81%
    07:00 +5°C° 0 mm 4 m/S 681 mmHg 81%
    08:00 +5°C° 0 mm 4 m/S 681 mmHg 81%
    09:00 +6°C° 0 mm 5 m/S 682 mmHg 75%
    10:00 +8°C° 0 mm 5 m/S 682 mmHg 70%
    11:00 +9°C° 0 mm 6 m/S 683 mmHg 64%
    12:00 +9°C° 0 mm 5 m/S 683 mmHg 66%
    13:00 +10°C° 0 mm 4 m/S 683 mmHg 67%
    14:00 +10°C° 0 mm 4 m/S 683 mmHg 69%
    15:00 +9°C° 0,3 mm 3 m/S 683 mmHg 74%
    16:00 +9°C° 0,3 mm 3 m/S 684 mmHg 79%
    17:00 +8°C° 0,3 mm 2 m/S 684 mmHg 84%
    18:00 +7°C° 0,8 mm 2 m/S 684 mmHg 86%
    19:00 +7°C° 0,8 mm 2 m/S 684 mmHg 88%
    20:00 +6°C° 0,8 mm 2 m/S 684 mmHg 90%
    21:00 +6°C° 1,4 mm 2 m/S 684 mmHg 91%
    22:00 +6°C° 1,4 mm 2 m/S 684 mmHg 92%
    23:00 +6°C° 1,4 mm 1 m/S 684 mmHg 93%

    Morgen, 17 Dezember, Sonntag

    Zeit Temperatur Niederschläge Wind Luftdruck Luftfeuchtigkeit
    00:00 +5°C° 1,5 mm 2 m/S 684 mmHg 93%
    01:00 +5°C° 1,5 mm 2 m/S 684 mmHg 93%
    02:00 +4°C° 1,5 mm 2 m/S 684 mmHg 92%
    03:00 +5°C° 1,4 mm 1 m/S 684 mmHg 92%
    04:00 +5°C° 1,4 mm 1 m/S 684 mmHg 92%
    05:00 +4°C° 1,4 mm 1 m/S 684 mmHg 92%
    06:00 +4°C° 0,5 mm 1 m/S 685 mmHg 92%
    07:00 +4°C° 0,5 mm 1 m/S 685 mmHg 92%
    08:00 +4°C° 0,5 mm 1 m/S 685 mmHg 91%
    09:00 +4°C° 0,4 mm 1 m/S 686 mmHg 89%
    10:00 +5°C° 0,4 mm 1 m/S 686 mmHg 87%
    11:00 +4°C° 0,4 mm 2 m/S 686 mmHg 85%
    12:00 +4°C° 0,3 mm 2 m/S 686 mmHg 84%
    13:00 +4°C° 0,3 mm 2 m/S 686 mmHg 83%
    14:00 +4°C° 0,3 mm 2 m/S 686 mmHg 83%
    15:00 +3°C° 0 mm 2 m/S 687 mmHg 84%
    16:00 +3°C° 0 mm 2 m/S 687 mmHg 85%
    17:00 +2°C° 0 mm 2 m/S 687 mmHg 86%
    18:00 +1°C° 0 mm 2 m/S 688 mmHg 87%
    19:00 +1°C° 0 mm 2 m/S 688 mmHg 88%
    20:00 -1°C° 0 mm 2 m/S 689 mmHg 88%
    21:00 -1°C° 0 mm 2 m/S 689 mmHg 88%
    22:00 -1°C° 0 mm 2 m/S 690 mmHg 88%
    23:00 -2°C° 0 mm 2 m/S 690 mmHg 87%

    übermorgen, 18 Dezember, Montag

    Zeit Temperatur Niederschläge Wind Luftdruck Luftfeuchtigkeit
    00:00 -2°C° 0 mm 2 m/S 690 mmHg 87%
    01:00 -3°C° 0 mm 2 m/S 690 mmHg 87%
    02:00 -3°C° 0 mm 2 m/S 691 mmHg 86%
    03:00 -3°C° 0 mm 2 m/S 691 mmHg 86%
    04:00 -1°C° 0 mm 1 m/S 690 mmHg 86%
    05:00 -2°C° 0 mm 1 m/S 690 mmHg 86%
    06:00 -2°C° 0 mm 1 m/S 691 mmHg 85%
    07:00 -2°C° 0 mm 1 m/S 691 mmHg 85%
    08:00 -2°C° 0 mm 1 m/S 692 mmHg 84%
    09:00 -3°C° 0,1 mm 2 m/S 692 mmHg 81%
    10:00 -3°C° 0,1 mm 2 m/S 692 mmHg 78%
    11:00 -2°C° 0,1 mm 2 m/S 692 mmHg 74%
    12:00 -2°C° 0,1 mm 2 m/S 692 mmHg 74%
    13:00 -2°C° 0,1 mm 2 m/S 692 mmHg 74%
    14:00 -2°C° 0,1 mm 2 m/S 691 mmHg 74%
    15:00 -2°C° 0,1 mm 2 m/S 691 mmHg 76%
    16:00 -3°C° 0,1 mm 2 m/S 691 mmHg 79%
    17:00 -3°C° 0,1 mm 2 m/S 691 mmHg 81%
    18:00 -4°C° 0,1 mm 2 m/S 691 mmHg 82%
    19:00 -4°C° 0,1 mm 2 m/S 692 mmHg 83%
    20:00 -5°C° 0,1 mm 2 m/S 692 mmHg 84%
    21:00 -5°C° 0 mm 2 m/S 692 mmHg 83%
    22:00 -6°C° 0 mm 2 m/S 693 mmHg 83%
    23:00 -4°C° 0 mm 1 m/S 693 mmHg 83%

    19 Dezember, Dienstag

    Zeit Temperatur Niederschläge Wind Luftdruck Luftfeuchtigkeit
    00:00 -4°C° 0 mm 1 m/S 693 mmHg 82%
    01:00 -6°C° 0 mm 1 m/S 693 mmHg 81%
    02:00 -6°C° 0 mm 1 m/S 693 mmHg 80%
    03:00 -6°C° 0 mm 1 m/S 694 mmHg 80%
    04:00 -6°C° 0 mm 1 m/S 694 mmHg 80%
    05:00 -4°C° 0 mm 1 m/S 694 mmHg 79%
    06:00 -4°C° 0 mm 1 m/S 695 mmHg 79%
    07:00 -4°C° 0 mm 1 m/S 695 mmHg 80%
    08:00 -4°C° 0 mm 1 m/S 696 mmHg 80%
    09:00 -5°C° 0 mm 2 m/S 696 mmHg 76%
    10:00 -5°C° 0 mm 2 m/S 697 mmHg 72%
    11:00 -4°C° 0 mm 2 m/S 697 mmHg 68%
    12:00 -3°C° 0,1 mm 2 m/S 697 mmHg 68%
    13:00 -4°C° 0,1 mm 3 m/S 697 mmHg 68%
    14:00 -4°C° 0,1 mm 3 m/S 697 mmHg 68%
    15:00 -3°C° 0,1 mm 2 m/S 697 mmHg 73%
    16:00 -4°C° 0,1 mm 2 m/S 697 mmHg 77%
    17:00 -5°C° 0,1 mm 2 m/S 697 mmHg 81%
    18:00 -5°C° 0 mm 2 m/S 698 mmHg 83%
    19:00 -3°C° 0 mm 1 m/S 698 mmHg 85%
    20:00 -3°C° 0 mm 1 m/S 699 mmHg 87%
    21:00 -4°C° 0 mm 1 m/S 699 mmHg 88%
    22:00 -4°C° 0 mm 1 m/S 699 mmHg 88%
    23:00 -4°C° 0 mm 1 m/S 699 mmHg 88%

    20 Dezember, Mittwoch

    Zeit Temperatur Niederschläge Wind Luftdruck Luftfeuchtigkeit
    00:00 -4°C° 0 mm 1 m/S 699 mmHg 88%
    01:00 -4°C° 0 mm 1 m/S 699 mmHg 89%
    02:00 -6°C° 0 mm 1 m/S 699 mmHg 89%
    03:00 -6°C° 0 mm 1 m/S 698 mmHg 88%
    04:00 -6°C° 0 mm 1 m/S 698 mmHg 88%
    05:00 -7°C° 0 mm 1 m/S 698 mmHg 87%
    06:00 -7°C° 0 mm 1 m/S 698 mmHg 87%
    07:00 -7°C° 0 mm 1 m/S 698 mmHg 86%
    08:00 -7°C° 0 mm 1 m/S 698 mmHg 86%
    09:00 -6°C° 0 mm 1 m/S 698 mmHg 79%
    10:00 -3°C° 0 mm 1 m/S 698 mmHg 72%
    11:00 -2°C° 0 mm 1 m/S 699 mmHg 66%
    12:00 -2°C° 0 mm 1 m/S 698 mmHg 64%
    13:00 -1°C° 0 mm 1 m/S 698 mmHg 61%
    14:00 -1°C° 0 mm 1 m/S 698 mmHg 59%
    15:00 -2°C° 0 mm 1 m/S 698 mmHg 64%
    16:00 -3°C° 0 mm 1 m/S 698 mmHg 69%
    17:00 -4°C° 0 mm 1 m/S 698 mmHg 74%
    18:00 -4°C° 0 mm 1 m/S 698 mmHg 76%
    19:00 -6°C° 0 mm 1 m/S 698 mmHg 78%
    20:00 -6°C° 0 mm 0 m/S 698 mmHg 79%
    21:00 -6°C° 0 mm 1 m/S 698 mmHg 79%
    22:00 -6°C° 0 mm 1 m/S 698 mmHg 79%
    23:00 -6°C° 0 mm 1 m/S 699 mmHg 79%

    21 Dezember, Donnerstag

    Zeit Temperatur Niederschläge Wind Luftdruck Luftfeuchtigkeit
    00:00 -7°C° 0 mm 1 m/S 698 mmHg 80%
    01:00 -7°C° 0 mm 1 m/S 698 mmHg 80%
    02:00 -7°C° 0 mm 1 m/S 698 mmHg 80%
    03:00 -7°C° 0 mm 1 m/S 698 mmHg 80%
    04:00 -7°C° 0 mm 1 m/S 698 mmHg 80%
    05:00 -7°C° 0 mm 1 m/S 698 mmHg 80%
    06:00 -7°C° 0 mm 1 m/S 698 mmHg 80%
    07:00 -7°C° 0 mm 1 m/S 698 mmHg 81%
    08:00 -7°C° 0 mm 1 m/S 698 mmHg 81%
    09:00 -6°C° 0 mm 1 m/S 699 mmHg 76%
    10:00 -3°C° 0 mm 1 m/S 699 mmHg 72%
    11:00 -2°C° 0 mm 1 m/S 699 mmHg 67%
    12:00 -3°C° 0 mm 2 m/S 699 mmHg 65%
    13:00 -3°C° 0 mm 2 m/S 698 mmHg 63%
    14:00 -2°C° 0 mm 2 m/S 698 mmHg 61%
    15:00 -3°C° 0 mm 2 m/S 698 mmHg 66%
    16:00 -2°C° 0 mm 1 m/S 697 mmHg 70%
    17:00 -3°C° 0 mm 1 m/S 697 mmHg 75%
    18:00 -2°C° 0 mm 1 m/S 697 mmHg 75%
    19:00 -2°C° 0 mm 1 m/S 697 mmHg 75%
    20:00 -2°C° 0 mm 1 m/S 697 mmHg 76%
    21:00 -2°C° 0,1 mm 1 m/S 697 mmHg 77%
    22:00 -1°C° 0,1 mm 1 m/S 697 mmHg 79%
    23:00 -1°C° 0,1 mm 1 m/S 697 mmHg 81%
    Mehr zeigen